Location: Warszawa
(51.9840°N, 21.0580°E)
Time: 01:22:11
(UTC+02:00)

Mayak - Visible Passes

Search period start: 22 September 2019 00:00
Search period end: 02 October 2019 00:00
Orbit: 581 x 603 km, 97.6° (Epoch: 21 September)

Date Brightness Start Highest point End Pass type
(mag) Time Alt. Az. Time Alt. Az. Time Alt. Az.
22 Sep 1.8 00:11:04 10° N 00:11:34 13° N 00:11:34 13° N visible
23 Sep 1.9 00:19:49 10° N 00:20:10 12° N 00:20:10 12° N visible
24 Sep 2.0 00:28:36 10° N 00:28:47 11° N 00:28:47 11° N visible
25 Sep 2.0 00:37:24 10° NNW 00:37:24 10° NNW 00:37:24 10° NNW visible
